• In Hungary
  • List of Countries
  • For 7 days
  • Water Temperature
  • Satellite Maps
  • Weather Map
  • News
  • Weather Widgets
  • user-avatar
    Login

    Hourly Weather Htun

    Today, 17 July, Tuesday

    Time Temperature Precipitation Wind Pressure Humidity
    00:00 +18°C° 0 mm 1 mps 661 mmHg 70%
    01:00 +18°C° 0 mm 1 mps 661 mmHg 69%
    02:00 +18°C° 0 mm 1 mps 661 mmHg 68%
    03:00 +16°C° 0 mm 2 mps 661 mmHg 67%
    04:00 +18°C° 0 mm 1 mps 661 mmHg 65%
    05:00 +19°C° 0 mm 1 mps 662 mmHg 62%
    06:00 +20°C° 0 mm 1 mps 662 mmHg 60%
    07:00 +20°C° 0 mm 2 mps 662 mmHg 56%
    08:00 +23°C° 0 mm 2 mps 663 mmHg 53%
    09:00 +24°C° 0 mm 3 mps 663 mmHg 49%
    10:00 +25°C° 0 mm 3 mps 663 mmHg 48%
    11:00 +25°C° 0 mm 3 mps 663 mmHg 47%
    12:00 +26°C° 0 mm 4 mps 663 mmHg 46%
    13:00 +26°C° 0.1 mm 4 mps 663 mmHg 48%
    14:00 +26°C° 0.1 mm 4 mps 663 mmHg 49%
    15:00 +26°C° 0.1 mm 4 mps 663 mmHg 50%
    16:00 +25°C° 0.1 mm 3 mps 662 mmHg 55%
    17:00 +24°C° 0.1 mm 3 mps 662 mmHg 60%
    18:00 +23°C° 0.1 mm 2 mps 662 mmHg 65%
    19:00 +20°C° 0.1 mm 2 mps 662 mmHg 69%
    20:00 +19°C° 0.1 mm 2 mps 662 mmHg 74%
    21:00 +18°C° 0.1 mm 1 mps 662 mmHg 78%
    22:00 +18°C° 0 mm 1 mps 662 mmHg 74%
    23:00 +19°C° 0 mm 1 mps 662 mmHg 69%

    Tomorrow, 18 July, Wednesday

    Time Temperature Precipitation Wind Pressure Humidity
    00:00 +19°C° 0 mm 1 mps 661 mmHg 65%
    01:00 +18°C° 0 mm 1 mps 661 mmHg 63%
    02:00 +18°C° 0 mm 1 mps 661 mmHg 61%
    03:00 +18°C° 0 mm 1 mps 661 mmHg 59%
    04:00 +19°C° 0 mm 1 mps 662 mmHg 57%
    05:00 +20°C° 0 mm 1 mps 662 mmHg 56%
    06:00 +21°C° 0 mm 1 mps 662 mmHg 54%
    07:00 +22°C° 0 mm 1 mps 663 mmHg 51%
    08:00 +24°C° 0 mm 2 mps 663 mmHg 48%
    09:00 +26°C° 0 mm 3 mps 663 mmHg 45%
    10:00 +27°C° 0 mm 3 mps 663 mmHg 44%
    11:00 +27°C° 0 mm 4 mps 663 mmHg 43%
    12:00 +28°C° 0 mm 4 mps 663 mmHg 42%
    13:00 +28°C° 0 mm 4 mps 663 mmHg 43%
    14:00 +28°C° 0 mm 4 mps 663 mmHg 45%
    15:00 +28°C° 0 mm 4 mps 662 mmHg 47%
    16:00 +27°C° 0 mm 4 mps 662 mmHg 51%
    17:00 +26°C° 0 mm 3 mps 662 mmHg 56%
    18:00 +25°C° 0 mm 2 mps 661 mmHg 60%
    19:00 +23°C° 0 mm 2 mps 661 mmHg 63%
    20:00 +21°C° 0 mm 2 mps 661 mmHg 66%
    21:00 +20°C° 0 mm 1 mps 661 mmHg 69%
    22:00 +20°C° 0 mm 1 mps 661 mmHg 65%
    23:00 +20°C° 0 mm 1 mps 661 mmHg 61%

    Day after tomorrow, 19 July, Thursday

    Time Temperature Precipitation Wind Pressure Humidity
    00:00 +19°C° 0 mm 2 mps 661 mmHg 57%
    01:00 +19°C° 0 mm 2 mps 661 mmHg 55%
    02:00 +19°C° 0 mm 2 mps 660 mmHg 53%
    03:00 +20°C° 0 mm 1 mps 660 mmHg 52%
    04:00 +21°C° 0 mm 1 mps 660 mmHg 50%
    05:00 +22°C° 0 mm 1 mps 660 mmHg 49%
    06:00 +23°C° 0 mm 1 mps 661 mmHg 48%
    07:00 +25°C° 0 mm 2 mps 661 mmHg 45%
    08:00 +27°C° 0 mm 2 mps 661 mmHg 42%
    09:00 +29°C° 0 mm 2 mps 662 mmHg 39%
    10:00 +30°C° 0 mm 3 mps 662 mmHg 38%
    11:00 +31°C° 0 mm 3 mps 662 mmHg 38%
    12:00 +33°C° 0 mm 4 mps 662 mmHg 37%
    13:00 +32°C° 0 mm 4 mps 661 mmHg 37%
    14:00 +31°C° 0 mm 3 mps 661 mmHg 38%
    15:00 +31°C° 0 mm 3 mps 661 mmHg 38%
    16:00 +30°C° 0 mm 3 mps 661 mmHg 42%
    17:00 +29°C° 0 mm 2 mps 661 mmHg 46%
    18:00 +28°C° 0 mm 2 mps 661 mmHg 51%
    19:00 +26°C° 0 mm 2 mps 660 mmHg 54%
    20:00 +25°C° 0 mm 1 mps 660 mmHg 57%
    21:00 +23°C° 0 mm 1 mps 660 mmHg 61%
    22:00 +23°C° 0 mm 2 mps 660 mmHg 58%
    23:00 +23°C° 0 mm 2 mps 660 mmHg 56%

    20 July, Friday

    Time Temperature Precipitation Wind Pressure Humidity
    00:00 +23°C° 0 mm 2 mps 660 mmHg 53%
    01:00 +21°C° 0 mm 2 mps 660 mmHg 51%
    02:00 +21°C° 0 mm 2 mps 660 mmHg 49%
    03:00 +21°C° 0 mm 2 mps 660 mmHg 47%
    04:00 +23°C° 0 mm 2 mps 660 mmHg 46%
    05:00 +24°C° 0 mm 2 mps 661 mmHg 45%
    06:00 +25°C° 0 mm 2 mps 661 mmHg 44%
    07:00 +27°C° 0 mm 2 mps 661 mmHg 41%
    08:00 +29°C° 0 mm 3 mps 662 mmHg 39%
    09:00 +30°C° 0 mm 3 mps 662 mmHg 36%
    10:00 +32°C° 0 mm 4 mps 662 mmHg 36%
    11:00 +33°C° 0 mm 4 mps 662 mmHg 36%
    12:00 +33°C° 0 mm 5 mps 662 mmHg 35%
    13:00 +33°C° 0 mm 4 mps 662 mmHg 37%
    14:00 +32°C° 0 mm 4 mps 662 mmHg 39%
    15:00 +32°C° 0 mm 4 mps 661 mmHg 40%
    16:00 +30°C° 0 mm 3 mps 661 mmHg 44%
    17:00 +29°C° 0 mm 3 mps 661 mmHg 48%
    18:00 +28°C° 0 mm 2 mps 661 mmHg 52%
    19:00 +26°C° 0 mm 2 mps 661 mmHg 56%
    20:00 +24°C° 0 mm 2 mps 661 mmHg 61%
    21:00 +23°C° 0 mm 2 mps 661 mmHg 66%
    22:00 +23°C° 0 mm 2 mps 660 mmHg 66%
    23:00 +23°C° 0 mm 2 mps 660 mmHg 65%

    21 July, Saturday

    Time Temperature Precipitation Wind Pressure Humidity
    00:00 +23°C° 0 mm 2 mps 660 mmHg 65%
    01:00 +23°C° 0.1 mm 2 mps 660 mmHg 65%
    02:00 +23°C° 0.1 mm 2 mps 660 mmHg 65%
    03:00 +23°C° 0.1 mm 2 mps 660 mmHg 66%
    04:00 +23°C° 0.1 mm 2 mps 660 mmHg 63%
    05:00 +24°C° 0.1 mm 2 mps 661 mmHg 61%
    06:00 +25°C° 0.1 mm 2 mps 661 mmHg 59%
    07:00 +26°C° 0.1 mm 2 mps 661 mmHg 54%
    08:00 +27°C° 0.1 mm 2 mps 662 mmHg 48%
    09:00 +29°C° 0.1 mm 3 mps 662 mmHg 43%
    10:00 +29°C° 0.3 mm 3 mps 662 mmHg 41%
    11:00 +30°C° 0.3 mm 3 mps 662 mmHg 39%
    12:00 +32°C° 0.3 mm 4 mps 662 mmHg 37%
    13:00 +32°C° 0.2 mm 4 mps 662 mmHg 38%
    14:00 +32°C° 0.2 mm 4 mps 662 mmHg 39%
    15:00 +32°C° 0.2 mm 4 mps 661 mmHg 39%
    16:00 +30°C° 0.1 mm 3 mps 661 mmHg 42%
    17:00 +29°C° 0.1 mm 3 mps 661 mmHg 45%
    18:00 +28°C° 0.1 mm 2 mps 661 mmHg 48%
    19:00 +26°C° 0 mm 2 mps 661 mmHg 53%
    20:00 +24°C° 0 mm 2 mps 661 mmHg 57%
    21:00 +23°C° 0 mm 2 mps 661 mmHg 62%
    22:00 +23°C° 0 mm 2 mps 661 mmHg 61%
    23:00 +23°C° 0 mm 2 mps 661 mmHg 61%

    22 July, Sunday

    Time Temperature Precipitation Wind Pressure Humidity
    00:00 +22°C° 0 mm 3 mps 661 mmHg 60%
    01:00 +21°C° 0 mm 2 mps 661 mmHg 60%
    02:00 +21°C° 0 mm 2 mps 661 mmHg 60%
    03:00 +21°C° 0 mm 2 mps 661 mmHg 61%
    04:00 +23°C° 0.1 mm 2 mps 661 mmHg 60%
    05:00 +23°C° 0.1 mm 2 mps 661 mmHg 60%
    06:00 +23°C° 0.1 mm 2 mps 661 mmHg 60%
    07:00 +24°C° 0.1 mm 2 mps 661 mmHg 56%
    08:00 +25°C° 0.1 mm 2 mps 662 mmHg 53%
    09:00 +26°C° 0.1 mm 3 mps 662 mmHg 50%
    10:00 +27°C° 0.3 mm 3 mps 662 mmHg 47%
    11:00 +28°C° 0.3 mm 3 mps 662 mmHg 45%
    12:00 +29°C° 0.3 mm 3 mps 662 mmHg 43%
    13:00 +29°C° 0.3 mm 3 mps 662 mmHg 43%
    14:00 +30°C° 0.3 mm 3 mps 662 mmHg 42%
    15:00 +30°C° 0.3 mm 3 mps 661 mmHg 42%
    16:00 +29°C° 0.1 mm 3 mps 661 mmHg 46%
    17:00 +28°C° 0.1 mm 3 mps 661 mmHg 49%
    18:00 +27°C° 0.1 mm 2 mps 661 mmHg 52%
    19:00 +25°C° 0 mm 2 mps 661 mmHg 57%
    20:00 +24°C° 0 mm 2 mps 660 mmHg 61%
    21:00 +22°C° 0 mm 1 mps 660 mmHg 66%
    22:00 +21°C° 0.1 mm 2 mps 660 mmHg 65%
    23:00 +21°C° 0.1 mm 2 mps 660 mmHg 63%
    Show more